Location: Newark
(11.0000°N, 10.0000°W)
Time: 22:02:01
(UTC+00:00)

N. Korean satellite - Visible Passes

Search period start: 25 March 2019 00:00
Search period end: 04 April 2019 00:00
Orbit: 456 x 510 km, 97.2° (Epoch: 24 March)

Date Brightness Start Highest point End Pass type
(mag) Time Alt. Az. Time Alt. Az. Time Alt. Az.
27 Mar 9.7 05:53:36 10° NE 05:56:14 19° E 05:58:53 10° SE visible
30 Mar 8.4 06:11:42 10° NNE 06:15:08 38° E 06:18:36 10° S visible
31 Mar 9.9 05:48:04 10° ENE 05:50:20 16° E 05:52:38 10° SE visible
31 Mar 10.2 19:15:58 10° WSW 19:16:57 11° W 19:17:56 10° W visible
03 Apr 8.8 06:05:55 10° NE 06:09:13 31° E 06:12:33 10° SSE visible
